Flag for U.S.A. Weather past 2 weeks in Macon, Georgia, U.S.A.

Now
66 °F

Passing clouds.


Feels Like: 66 °F
Forecast: 53 / 71 °F
Wind: 10 mph from Southeast

Location: Middle Georgia Regional Airport

Current Time: Apr 28, 2015 at 12:59:18 PM

Latest Report: Apr 28, 2015 at 11:53 AM


Visibility: 10 mi

Pressure: 29.92 "Hg

Humidity: 56%

Dew point: 50 °F

Location of MaconLocation

Historic Weather in Macon — Graph

°F

Macon temperature yesterday

Maximum temperature yesterday: 74 °F (at 3:53 PM)
Minimum temperature yesterday: 58 °F (at 11:53 PM)
Average temperature yesterday: 65 °F

Past Weeks' High & Low Weather Summary

 TemperatureHumidityPressure
High85 °F (Apr 26, 3:53 PM)100% (Apr 15, 3:00 AM)30.24 "Hg (Apr 15, 3:00 AM)
Low45 °F (Apr 22, 6:00 AM)32% (Apr 21, 5:53 PM)29.62 "Hg (Apr 26, 4:53 PM)
Average67 °F78%29.94 "Hg
* Reported Apr 13 11:53 AM — Apr 28 11:53 AM, Macon, Weather by CustomWeather, © 2015

Note: Actual official high and low records may vary slightly from our data, if they occured in-between our weather recording intervals... More about our weather records

Advertising

Macon weather history for previous 24 hours

 ConditionsComfort  
Time TempWeatherWind HumidityBarometerVisibility
11:53 AM
Tue, Apr 28
66 °FPassing clouds.10 mph56%29.92 "Hg10 mi
10:53 AM64 °FSunny.10 mph54%29.92 "Hg10 mi
9:53 AM59 °FSunny.10 mph60%29.93 "Hg10 mi
8:53 AM57 °FSunny.9 mph67%29.93 "Hg10 mi
7:53 AM55 °FSunny.9 mph77%29.92 "Hg10 mi
6:53 AM54 °FClear.7 mph86%29.88 "Hg10 mi
5:53 AM55 °FClear.No wind83%29.85 "Hg10 mi
4:53 AM55 °FClear.No wind96%29.85 "Hg8 mi
3:53 AM55 °FClear.No wind93%29.85 "Hg10 mi
2:53 AM55 °FFog.No wind93%29.85 "Hg6 mi
1:53 AM56 °FClear.No wind93%29.85 "Hg8 mi
12:53 AM57 °FClear.No wind83%29.86 "Hg10 mi
11:53 PM
Mon, Apr 27
58 °FClear.No wind78%29.87 "Hg10 mi
10:53 PM61 °FClear.No wind65%29.86 "Hg10 mi
9:53 PM64 °FClear.6 mph58%29.85 "Hg10 mi
8:53 PM63 °FSunny.No wind84%29.84 "Hg10 mi
7:53 PM66 °FSunny.No wind75%29.81 "Hg10 mi
6:53 PM71 °FSunny.3 mph53%29.81 "Hg10 mi
5:53 PM72 °FSunny.5 mph48%29.81 "Hg10 mi
4:53 PM73 °FSunny.6 mph44%29.83 "Hg10 mi
3:53 PM74 °FSunny.7 mph45%29.81 "Hg10 mi
2:53 PM73 °FSunny.5 mph48%29.85 "Hg10 mi
1:53 PM73 °FSunny.9 mph46%29.84 "Hg10 mi
12:53 PM72 °FSunny.6 mph48%29.84 "Hg10 mi
Weather by CustomWeather, © 2015

See weather overviewHow to use our weather pages